Flag for Germany Weather past 2 weeks in Viersen, North Rhine-Westphalia, Germany

Now
41 °F

Scattered showers. Partly cloudy.


Feels Like: 35 °F
Forecast: 38 / 45 °F
Wind: 9 mph from Northwest

Location: Monchengladbach Airport

Current Time: Jan 27, 2015 at 1:58:05 PM

Latest Report: Jan 27, 2015 at 1:20 PM


Visibility: 5 mi

Pressure: 30.21 "Hg

Humidity: 93%

Dew point: 39 °F

Location of ViersenLocation

Historic Weather in Viersen — Graph

°F

Viersen temperature yesterday

Maximum temperature yesterday: 45 °F (at 4:50 PM)
Minimum temperature yesterday: 37 °F (at 7:50 AM)
Average temperature yesterday: 41 °F

Past Weeks' High & Low Weather Summary

 TemperatureHumidityPressure
High54 °F (Jan 13, 11:20 AM)100% (Jan 17, 8:20 AM)30.42 "Hg (Jan 17, 8:20 AM)
Low28 °F (Jan 19, 8:20 AM)61% (Jan 17, 2:20 PM)29.42 "Hg (Jan 15, 2:50 PM)
Average39 °F83%29.95 "Hg
* Reported Jan 12 12:20 PM — Jan 27 12:50 PM, Viersen, Weather by CustomWeather, © 2014

Note: Actual official high and low records may vary slightly from our data, if they occured in-between our weather recording intervals... More about our weather records

Advertising

Viersen weather history for previous 24 hours

 ConditionsComfort  
Time TempWeatherWind HumidityBarometerVisibility
12:50 PM
Jan 27
41 °FLight rain. Fog.8 mph93%30.21 "Hg3 mi
12:20 PM41 °FLight rain. Passing clouds.9 mph87%30.21 "HgN/A
11:50 AM41 °FPassing clouds.9 mph87%30.21 "HgN/A
11:20 AM41 °FPassing clouds.12 mph87%30.21 "HgN/A
10:50 AM39 °FPassing clouds.8 mph93%30.21 "HgN/A
10:20 AM37 °FPassing clouds.8 mph93%30.21 "HgN/A
9:50 AM37 °FPassing clouds.6 mph93%30.21 "HgN/A
9:20 AM37 °FLight rain. Passing clouds.12 mph93%30.21 "Hg4 mi
8:50 AM37 °FPassing clouds.8 mph93%30.21 "HgN/A
8:20 AM37 °FScattered clouds.6 mph87%30.18 "HgN/A
7:50 AM37 °FScattered clouds.10 mph93%30.18 "HgN/A
8:20 PM
Jan 26
43 °FPassing clouds.12 mph81%30.09 "HgN/A
7:50 PM43 °FPassing clouds.12 mph87%30.09 "HgN/A
7:20 PM43 °FClear.15 mph87%30.09 "Hg10 mi
6:50 PM45 °FClear.13 mph87%30.07 "Hg10 mi
6:20 PM45 °FClear.10 mph93%30.07 "Hg10 mi
5:50 PM45 °FPassing clouds.8 mph93%30.07 "HgN/A
5:20 PM45 °FLight rain. Fog.8 mph100%30.04 "Hg2 mi
4:50 PM45 °FDrizzle. Fog.6 mph93%30.04 "Hg2 mi
4:20 PM43 °FDrizzle. Fog.6 mph100%30.04 "Hg2 mi
3:50 PM43 °FDrizzle. Fog.8 mph100%30.04 "Hg2 mi
3:20 PM43 °FDrizzle. Fog.8 mph100%30.04 "Hg2 mi
2:50 PM43 °FDrizzle. Fog.8 mph100%30.04 "Hg1 mi
2:20 PM41 °FDrizzle. Fog.7 mph100%30.07 "Hg1 mi
1:50 PM41 °FDrizzle. Fog.6 mph100%30.07 "Hg1 mi
1:20 PM41 °FDrizzle. Fog.7 mph100%30.07 "Hg1 mi
Weather by CustomWeather, © 2014

See weather overviewHow to use our weather pages